Weather reports worldwide

Advertisment
Capo Bellavista, Italy (16550): temperature & dewpoint: 18.01.2019 00:00:00 - 24.01.2019 00:00:00 (CET)Capo Bellavista, Italy (16550): wind speed: 18.01.2019 00:00:00 - 24.01.2019 00:00:00 (CET)Capo Bellavista, Italy (16550): wind direction: 18.01.2019 00:00:00 - 24.01.2019 00:00:00 (CET)Capo Bellavista, Italy (16550): reduced air pressure: 18.01.2019 00:00:00 - 24.01.2019 00:00:00 (CET)Capo Bellavista, Italy (16550): visibility: 18.01.2019 00:00:00 - 24.01.2019 00:00:00 (CET)Capo Bellavista, Italy (16550): sunshine duration: 18.01.2019 00:00:00 - 24.01.2019 00:00:00 (CET)
Date & Time tt [°C] td [°C] ff [km/h] ff [kn] dd ppp [hPa] vv [km] sd [min]
24.01.2019 00:00:00 6,8 3,5 22 12 SW 988,1 20 -
23.01.2019 23:00:00 6,8 3,5 26 14 WSW 988,5 20 -
23.01.2019 22:00:00 8,2 3,3 26 14 SW 989,8 20 -
23.01.2019 21:00:00 8,8 2,6 21 11 SW 989,8 20 -
23.01.2019 20:00:00 9,0 0,2 22 12 SW 990,7 20 0
23.01.2019 19:00:00 9,0 0,3 22 12 SW 991,2 20 -
23.01.2019 18:00:00 9,2 1,0 21 11 SW 991,9 20 0
23.01.2019 17:00:00 9,6 2,1 21 11 SW 993,0 25 0
23.01.2019 16:00:00 10,0 -1,1 18 10 SW 993,8 25 0
23.01.2019 15:00:00 10,2 -1,5 9 5 N 993,8 30 0
23.01.2019 14:00:00 10,2 0,2 11 6 SW 995,6 20 0
23.01.2019 13:00:00 9,2 0,5 21 11 SW 995,9 25 0
23.01.2019 12:00:00 9,0 1,3 15 8 SW 996,3 25 0
23.01.2019 11:00:00 8,0 1,6 13 7 SW 998,0 25 0
23.01.2019 10:00:00 7,0 -2,4 9 5 SW 998,2 20 0
23.01.2019 09:00:00 7,0 -2,2 4 2 W 998,9 20 0
23.01.2019 08:00:00 7,2 -3,6 4 2 SW 999,7 20 0
23.01.2019 07:00:00 7,0 -1,4 5 3 SSW 1000,0 20 -
23.01.2019 06:00:00 6,2 0,1 9 5 W 1000,1 20 -
23.01.2019 05:00:00 7,0 -1,2 5 3 SW 1000,1 20 -
23.01.2019 04:00:00 7,0 -0,7 9 5 SW 1001,1 20 -
23.01.2019 03:00:00 7,0 -0,2 4 2 W 1002,0 20 -
23.01.2019 02:00:00 7,2 1,1 11 6 SW 1003,1 20 -
23.01.2019 01:00:00 7,2 -2,5 9 5 W 1003,4 20 -
23.01.2019 00:00:00 7,8 -6,3 5 3 NE 1004,1 20 -
22.01.2019 23:00:00 7,8 -5,6 4 2 WNW 1004,1 20 -
22.01.2019 22:00:00 8,0 -4,8 13 7 W 1004,1 20 -
22.01.2019 21:00:00 8,0 -3,8 13 7 WSW 1005,0 20 -
22.01.2019 20:00:00 7,6 -0,9 13 7 WSW 1005,1 20 -
22.01.2019 19:00:00 7,8 0,3 11 6 W 1005,1 20 0
22.01.2019 18:00:00 8,0 1,0 13 7 WNW 1005,3 20 6
22.01.2019 17:00:00 9,8 0,2 13 7 NNW 1005,1 25 36
22.01.2019 16:00:00 12,8 -1,5 4 2 WNW 1004,9 25 42
22.01.2019 15:00:00 11,2 -1,5 4 2 NNW 1005,6 25 36
22.01.2019 14:00:00 13,0 -1,7 5 3 N 1005,9 25 60
22.01.2019 13:00:00 11,0 -1,1 9 5 NW 1006,9 25 48
22.01.2019 12:00:00 11,4 -0,7 9 5 WNW 1007,6 30 60
22.01.2019 11:00:00 10,6 -1,4 8 4 WNW 1007,8 30 60
22.01.2019 10:00:00 10,2 -2,8 4 2 WNW 1008,1 20 60
22.01.2019 09:00:00 8,4 -0,1 4 2 WNW 1007,0 30 30
22.01.2019 08:00:00 8,0 -0,1 8 4 WNW 1006,4 30 0
22.01.2019 07:00:00 8,0 0,5 16 9 NW 1006,4 30 -
22.01.2019 06:00:00 8,6 1,2 8 4 N 1006,5 30 -
22.01.2019 05:00:00 8,4 1,5 5 3 WNW 1006,8 30 -
22.01.2019 04:00:00 8,6 2,7 5 3 NW 1007,3 30 -
22.01.2019 03:00:00 8,4 3,9 11 6 NNW 1007,3 30 -
22.01.2019 02:00:00 9,0 -30,0 11 6 NW 1007,3 25 6
22.01.2019 01:00:00 8,0 3,9 11 6 NW 1007,2 20 -
22.01.2019 00:00:00 9,0 4,6 9 5 NNW 1007,1 25 -
21.01.2019 23:00:00 8,4 5,2 9 5 NNW 1007,1 25 -
21.01.2019 22:00:00 8,2 6,7 9 5 NW 1006,8 10 -
21.01.2019 21:00:00 8,4 6,9 11 6 NW 1006,1 20 -
21.01.2019 20:00:00 9,4 6,3 9 5 NW 1006,1 20 -
21.01.2019 19:00:00 9,8 6,4 21 11 NW 1005,3 20 -
21.01.2019 18:00:00 10,0 7,4 13 7 N 1005,3 20 0
21.01.2019 17:00:00 10,0 7,4 9 5 N 1005,3 18 0
21.01.2019 16:00:00 9,6 8,1 22 12 N 1005,3 12 0
21.01.2019 15:00:00 9,6 8,5 5 3 N 1005,3 12 0
21.01.2019 14:00:00 9,4 8,7 13 7 NNW 1005,5 12 0
21.01.2019 13:00:00 9,2 8,8 18 10 NNW 1006,1 12 0
21.01.2019 12:00:00 9,8 9,4 28 15 NNE 1007,2 12 0
21.01.2019 11:00:00 9,8 9,4 21 11 NE 1007,5 12 0
21.01.2019 10:00:00 8,4 7,7 15 8 NE 1008,0 12 0
21.01.2019 09:00:00 8,0 6,6 26 14 N 1008,0 15 0
21.01.2019 08:00:00 7,8 6,3 29 16 NNE 1008,1 20 0
21.01.2019 07:00:00 7,4 5,9 11 6 N 1008,3 20 -
21.01.2019 06:00:00 8,8 5,9 15 8 NE 1010,3 20 -
21.01.2019 05:00:00 9,0 5,7 11 6 NNE 1010,2 20 -
21.01.2019 04:00:00 9,0 6,3 16 9 NNE 1010,2 20 -
21.01.2019 03:00:00 9,2 6,3 13 7 N 1010,2 20 -
21.01.2019 02:00:00 9,2 6,1 15 8 N 1010,3 20 -
21.01.2019 01:00:00 9,4 6,1 11 6 N 1010,2 20 -
21.01.2019 00:00:00 9,4 6,0 13 7 NNW 1010,2 20 -
20.01.2019 23:00:00 9,6 6,0 9 5 NNW 1010,2 20 -
20.01.2019 22:00:00 9,6 5,8 11 6 NW 1010,2 20 -
20.01.2019 21:00:00 10,0 5,8 8 4 NNW 1010,2 20 -
20.01.2019 20:00:00 10,2 5,8 9 5 NW 1010,1 20 -
20.01.2019 19:00:00 10,2 5,6 9 5 ESE 1009,8 20 -
20.01.2019 18:00:00 10,6 3,9 11 6 W 1011,2 30 60
20.01.2019 17:00:00 10,4 3,2 9 5 NW 1011,0 30 60
20.01.2019 16:00:00 11,0 4,2 9 5 WNW 1011,2 30 60
20.01.2019 15:00:00 10,8 3,8 8 4 WNW 1011,2 30 60
20.01.2019 14:00:00 10,6 3,9 11 6 W 1011,2 30 60
20.01.2019 13:00:00 10,4 3,2 5 3 NW 1011,0 30 60
20.01.2019 12:00:00 10,2 3,5 9 5 WNW 1011,0 30 60
20.01.2019 11:00:00 10,0 3,1 8 4 WNW 1010,9 30 60
20.01.2019 10:00:00 9,2 2,3 5 3 WNW 1010,6 30 60
20.01.2019 09:00:00 8,0 3,3 5 3 WNW 1010,7 30 24
20.01.2019 08:00:00 7,0 2,5 5 3 NW 1010,4 20 0
20.01.2019 07:00:00 7,8 2,5 5 3 NW 1010,2 20 -
20.01.2019 06:00:00 8,0 3,1 5 3 WNW 1010,2 20 -
20.01.2019 05:00:00 7,8 3,8 5 3 WNW 1011,2 20 -
20.01.2019 04:00:00 8,0 3,5 5 3 NW 1011,3 20 -
20.01.2019 03:00:00 7,6 3,5 5 3 NW 1011,4 20 -
20.01.2019 02:00:00 7,8 3,8 5 3 WNW 1011,5 20 -
20.01.2019 01:00:00 8,4 4,2 8 4 NW 1012,1 20 -
20.01.2019 00:00:00 8,6 4,4 8 4 NW 1012,2 20 -
19.01.2019 23:00:00 8,8 4,6 5 3 NW 1012,1 20 -
19.01.2019 22:00:00 9,4 3,2 5 3 W 1012,1 20 -
19.01.2019 21:00:00 9,6 4,2 5 3 W 1012,1 20 -
19.01.2019 20:00:00 9,6 4,8 5 3 W 1012,1 20 -
19.01.2019 19:00:00 9,4 5,0 5 3 WNW 1011,7 20 -
19.01.2019 18:00:00 10,0 5,6 5 3 NW 1011,4 20 0
19.01.2019 17:00:00 11,6 6,3 5 3 W 1011,4 20 0
19.01.2019 16:00:00 11,8 6,9 5 3 S 1012,9 20 0
19.01.2019 15:00:00 12,4 3,9 0 0 N 1011,9 30 0
19.01.2019 14:00:00 13,6 2,8 0 0 N 1012,8 30 0
19.01.2019 13:00:00 14,2 2,8 0 0 N 1013,1 30 60
19.01.2019 12:00:00 13,0 2,0 0 0 N 1013,3 30 60
19.01.2019 11:00:00 10,4 0,4 5 3 E 1014,1 30 54
19.01.2019 10:00:00 9,0 -0,1 5 3 NW 1013,7 30 30
19.01.2019 09:00:00 7,0 -0,3 18 10 NW 1013,4 30 6
19.01.2019 08:00:00 7,4 -1,5 16 9 WNW 1013,4 30 0
19.01.2019 07:00:00 7,8 -0,4 9 5 WNW 1013,2 20 -
19.01.2019 06:00:00 8,2 -2,2 15 8 WNW 1013,3 20 -
19.01.2019 05:00:00 8,6 -2,9 16 9 NW 1013,5 20 -
19.01.2019 04:00:00 8,2 -3,5 18 10 WNW 1013,7 20 -
19.01.2019 03:00:00 8,2 -2,8 11 6 NW 1013,8 20 -
19.01.2019 02:00:00 7,2 -7,4 22 12 NW 1013,7 20 -
19.01.2019 01:00:00 8,8 -7,8 22 12 NNW 1013,6 20 -
19.01.2019 00:00:00 9,8 -9,4 11 6 NNW 1013,5 20 -
18.01.2019 23:00:00 10,4 -10,1 18 10 N 1013,3 20 -
18.01.2019 22:00:00 10,6 -9,6 15 8 WNW 1013,1 20 -
18.01.2019 21:00:00 10,2 -7,6 4 2 WNW 1013,1 20 -
18.01.2019 20:00:00 10,2 5,5 15 8 NW 1013,0 20 -
18.01.2019 19:00:00 11,4 8,1 8 4 NNE 1012,9 20 -
18.01.2019 18:00:00 11,4 8,1 11 6 ESE 1012,1 20 12
18.01.2019 17:00:00 13,0 7,5 4 2 E 1011,7 30 60
18.01.2019 16:00:00 14,2 7,3 5 3 NNE 1011,5 20 60
18.01.2019 15:00:00 14,2 7,2 11 6 E 1011,6 30 60
18.01.2019 14:00:00 14,2 6,4 8 4 E 1011,7 30 60
18.01.2019 13:00:00 14,2 6,8 5 3 E 1012,1 30 54
18.01.2019 12:00:00 13,8 6,7 9 5 E 1012,7 30 60
18.01.2019 11:00:00 12,2 2,8 4 2 NE 1012,4 30 54
18.01.2019 10:00:00 10,8 2,8 5 3 WNW 1012,2 30 36
18.01.2019 09:00:00 10,0 2,1 9 5 NW 1012,2 30 0
18.01.2019 08:00:00 11,2 1,7 15 8 W 1012,0 30 0
18.01.2019 07:00:00 10,4 2,0 13 7 WSW 1012,1 20 -
18.01.2019 06:00:00 10,0 1,1 13 7 WNW 1014,1 20 -
18.01.2019 05:00:00 10,0 0,9 16 9 W 1014,0 20 -
18.01.2019 04:00:00 10,0 0,3 16 9 W 1014,1 20 -
18.01.2019 03:00:00 10,2 0,0 18 10 W 1014,1 20 -
18.01.2019 02:00:00 10,4 -1,0 13 7 W 1014,1 20 -
18.01.2019 01:00:00 10,4 -0,7 18 10 WNW 1014,0 20 -
18.01.2019 00:00:00 10,6 -1,1 16 9 W 1014,0 20 -

tt = temperature
td = dewpoint
ff = wind speed
dd = wind direction
ppp = reduced air pressure
vv = visibility
sd = sunshine duration

Next stations